[[{"header":{"parameterUnit":"m.s-1","parameterCategory":1,"la1":30.2991,"la2":30.254,"lo1":-89.0895,"lo2":-89.0444,"dy":0.0017,"dx":0.0017,"nx":28,"ny":28,"refTime":"2023-07-29T21:00:00:Z","depth":0,"parameterNumber":2,"parameterNumberName":"U-component_of_WINDS"},"data":[0,0,0,0,0,0,0,0,0,0,0,0,0,0,0,0,0,0,0,0,0,0,0,0,0,0,0,0,0,0,0,0,0,0,0,0,0,0,0,0,0,0,0,0,0,0,0,0,0,0,0,0,0,0,0,0,0,0,1.3877,1.3879,0,1.407,1.4072,1.4075,1.4161,1.416,1.416,1.416,1.4357,1.4363,1.4368,0,0,0,0,0,0,0,0,0,0,0,0,0,1.3581,1.3586,1.3877,1.388,1.3882,1.407,1.4073,1.4075,1.4161,1.416,1.416,1.416,1.4356,1.4362,1.4369,0,0,0,0,0,0,0,0,0,0,0,0,0,1.3735,1.3588,1.3877,1.3947,1.3956,1.4069,1.4073,1.4076,1.4161,1.416,1.416,1.416,1.4353,1.4361,1.4369,1.4427,0,0,1.4395,1.4398,0,0,0,0,0,0,0,0,1.3727,1.3746,1.3934,1.3943,1.3952,1.4091,1.4041,1.4194,1.4161,1.4083,1.416,1.416,1.4269,1.4284,1.4321,1.4437,1.4445,1.4395,1.44,1.4404,1.4406,0,0,0,0,0,0,0,1.3716,1.3738,1.3954,1.3937,1.3948,1.3969,1.399,1.407,1.4176,1.409,1.4096,1.4118,1.4274,1.4313,1.4326,1.4448,1.4395,1.4402,1.4407,1.4411,1.4621,1.4621,0,0,0,0,0,0,1.3694,1.3729,1.3947,1.3959,1.3836,1.3974,1.3999,1.4047,1.4175,1.4194,1.4118,1.4121,1.4299,1.4317,1.4334,1.441,1.4404,1.4411,1.4416,1.462,1.4621,1.4622,0,0,0,0,0,0,1.3687,1.3712,1.394,1.3846,1.3877,1.398,1.4033,1.4051,1.409,1.4197,1.4216,1.4139,1.43,1.4322,1.4404,1.4418,1.4415,1.4423,1.4619,1.462,1.4621,1.4563,0,0,0,0,0,0,1.3678,1.371,1.3733,1.3846,1.3881,1.4006,1.4034,1.4055,1.4104,1.411,1.4221,1.4239,1.4301,1.4391,1.4412,1.4429,1.4429,1.4618,1.462,1.4621,1.4564,1.4562,1.456,0,0,0,0,0,1.3667,1.3709,1.3734,1.376,1.3913,1.4007,1.4027,1.4098,1.4105,1.4129,1.4197,1.4236,1.4413,1.4398,1.4423,1.4443,1.4618,1.4619,1.4621,1.4565,1.4562,1.456,0,0,0,0,0,0,1.3595,1.3725,1.3754,1.3833,1.3908,1.4021,1.4054,1.4092,1.4167,1.4169,1.4253,1.4278,1.4352,1.4406,1.4387,1.4506,1.4519,1.4525,1.4468,1.4466,1.4464,1.445,1.4436,0,0,0,0,0,1.3588,1.3654,1.3764,1.3823,1.386,1.395,1.3994,1.4041,1.4122,1.4155,1.4229,1.4306,1.4379,1.4426,1.4499,1.4572,1.4598,1.4598,1.4596,1.4594,1.4598,1.4641,1.4643,1.4626,1.4626,1.4626,0,0,1.3575,1.3654,1.369,1.3811,1.3875,1.3941,1.3976,1.4045,1.4095,1.4165,1.4247,1.4303,1.4395,1.4472,1.451,1.452,1.4608,1.4596,1.4593,1.4599,1.4643,1.4644,1.4645,1.4627,1.4627,1.4627,0,0,1.3584,1.3651,1.3708,1.3771,1.3867,1.3927,1.394,1.4047,1.4088,1.4171,1.4225,1.4285,1.4409,1.4473,1.4521,1.4553,1.4591,1.4574,1.4564,1.4605,1.4606,1.4607,1.4619,1.4622,1.4579,1.4579,1.4579,0,1.3555,1.3658,1.3732,1.3798,1.3849,1.3915,1.3973,1.4031,1.4145,1.4179,1.4188,1.4345,1.4411,1.4504,1.4512,1.4549,1.4567,1.4563,1.46,1.4602,1.4605,1.4617,1.4621,1.4576,1.4576,1.4577,1.4577,0,1.3618,1.3688,1.3722,1.3831,1.3886,1.3947,1.403,1.4077,1.4119,1.4178,1.4261,1.4343,1.4434,1.4459,1.4502,1.4558,1.4561,1.4583,1.4598,1.4602,1.4615,1.462,1.4572,1.4573,1.4574,1.4575,0,0,1.3588,1.3737,1.3748,1.3799,1.3909,1.3965,1.4028,1.4117,1.4156,1.4232,1.4288,1.4391,1.4412,1.4467,1.4517,1.4552,1.4573,1.4571,1.4574,1.4568,1.464,1.4623,1.4627,1.4598,1.4599,1.46,1.4633,0,1.3613,1.3731,1.3799,1.3889,1.3955,1.4018,1.4074,1.4147,1.4204,1.4267,1.4329,1.4401,1.4424,1.4457,1.4495,1.4562,1.4588,1.4561,1.4651,1.4653,1.4627,1.4634,1.4617,1.4643,1.4638,1.4639,1.464,0,1.3659,1.3734,1.383,1.3933,1.3963,1.4012,1.4099,1.4158,1.4243,1.4281,1.4341,1.4391,1.4461,1.4469,1.4566,1.4546,1.4587,1.4625,1.4628,1.464,1.4647,1.4646,1.4654,1.4658,1.4649,1.4648,1.4647,0,1.3627,1.3753,1.3827,1.3868,1.399,1.4023,1.4075,1.4159,1.4208,1.4283,1.4316,1.4398,1.4443,1.4506,1.4576,1.4576,1.4666,1.4681,1.47,1.4698,1.4717,1.4715,1.4731,1.4742,1.4742,1.4742,1.4742,0,1.3649,1.3705,1.3815,1.386,1.3925,1.4002,1.4064,1.4122,1.4196,1.4253,1.4313,1.4365,1.4455,1.4518,1.4574,1.4646,1.4666,1.4699,1.4713,1.4694,1.469,1.4722,1.4722,1.4743,1.4743,1.4743,1.4742,0,1.3625,1.3701,1.3786,1.3894,1.3922,1.3965,1.4058,1.4104,1.4163,1.4235,1.4256,1.4349,1.4426,1.4503,1.4607,1.4644,1.4716,1.4734,1.4687,1.4695,1.4711,1.4708,1.4749,1.4758,1.4761,1.4761,1.4761,0,1.3634,1.3679,1.3792,1.3835,1.3886,1.3954,1.4004,1.4081,1.4131,1.423,1.4264,1.4347,1.4417,1.4538,1.4614,1.4695,1.4716,1.4725,1.4728,1.4708,1.4717,1.4713,1.4718,1.4723,1.4722,1.4722,1.4722,0,1.3642,1.3677,1.3747,1.383,1.3889,1.3958,1.4029,1.406,1.4151,1.4204,1.4284,1.4338,1.4445,1.4526,1.4615,1.4668,1.471,1.4719,1.4728,1.471,1.4681,1.4697,1.4682,1.4719,1.4719,1.4719,1.4719,1.4719,1.3636,1.3679,1.3765,1.3841,1.3902,1.3967,1.4016,1.4081,1.4149,1.4242,1.4283,1.4364,1.4447,1.4571,1.4624,1.4688,1.4698,1.4711,1.4715,1.4717,1.4713,1.467,1.4704,1.4705,1.4705,1.4705,1.4705,0,1.3647,1.3705,1.3775,1.3872,1.3932,1.3966,1.4046,1.4093,1.4164,1.4238,1.4305,1.4397,1.4476,1.4558,1.4641,1.4677,1.4698,1.4696,1.4694,1.4706,1.4698,1.4682,1.4677,1.4677,1.4677,1.4677,1.4677,1.4677,1.366,1.3735,1.3779,1.3885,1.3943,1.4023,1.4066,1.4126,1.4185,1.4285,1.435,1.4403,1.4481,1.457,1.4643,1.4665,1.4693,1.4686,1.4714,1.4705,1.4707,1.4708,1.4694,1.4691,1.4691,1.4716,1.4717,1.4717]},{"header":{"parameterUnit":"m.s-1","parameterCategory":1,"la1":30.2991,"la2":30.254,"lo1":-89.0895,"lo2":-89.0444,"dy":0.0017,"dx":0.0017,"nx":28,"ny":28,"refTime":"2023-07-29T21:00:00:Z","depth":0,"parameterNumber":3,"parameterNumberName":"V-component_of_WINDS"},"data":[0,0,0,0,0,0,0,0,0,0,0,0,0,0,0,0,0,0,0,0,0,0,0,0,0,0,0,0,0,0,0,0,0,0,0,0,0,0,0,0,0,0,0,0,0,0,0,0,0,0,0,0,0,0,0,0,0,0,3.8961,3.896,0,3.8907,3.8906,3.8906,3.8852,3.8852,3.8851,3.885,3.8791,3.879,3.8789,0,0,0,0,0,0,0,0,0,0,0,0,0,3.9014,3.9013,3.8961,3.896,3.8959,3.8907,3.8906,3.8905,3.8852,3.8851,3.8851,3.885,3.8791,3.879,3.8789,0,0,0,0,0,0,0,0,0,0,0,0,0,3.8979,3.9013,3.8961,3.8927,3.8923,3.8907,3.8906,3.8905,3.8853,3.8851,3.885,3.8849,3.8792,3.879,3.8789,3.8801,0,0,3.8785,3.8784,0,0,0,0,0,0,0,0,3.8981,3.8977,3.8932,3.8929,3.8925,3.8885,3.8903,3.887,3.8853,3.8879,3.885,3.8849,3.8823,3.8819,3.8811,3.8798,3.8796,3.8785,3.8784,3.8783,3.8783,0,0,0,0,0,0,0,3.8983,3.8979,3.8939,3.8932,3.8927,3.8913,3.8907,3.8897,3.8857,3.8877,3.8873,3.8867,3.8821,3.8812,3.8809,3.8795,3.8785,3.8783,3.8783,3.8782,3.8789,3.879,0,0,0,0,0,0,3.8991,3.8981,3.8941,3.8938,3.8951,3.8913,3.8906,3.8899,3.8857,3.885,3.8868,3.8865,3.8815,3.8811,3.8807,3.8818,3.8783,3.8782,3.8781,3.8788,3.8789,3.879,0,0,0,0,0,0,3.8993,3.8988,3.8943,3.8958,3.8951,3.8913,3.8906,3.8898,3.889,3.8851,3.8843,3.8867,3.8814,3.8809,3.8803,3.8815,3.8781,3.878,3.8786,3.8788,3.8789,3.884,0,0,0,0,0,0,3.8995,3.8989,3.8994,3.8959,3.8951,3.8942,3.8906,3.8898,3.8888,3.8884,3.8848,3.8841,3.8813,3.8805,3.8802,3.8812,3.8779,3.8785,3.8787,3.8789,3.8837,3.8843,3.8848,0,0,0,0,0,3.8997,3.901,3.8995,3.899,3.8957,3.8942,3.8938,3.8906,3.889,3.8894,3.8869,3.8842,3.8815,3.8805,3.8801,3.8811,3.8784,3.8787,3.8789,3.8835,3.8842,3.8848,0,0,0,0,0,0,3.9047,3.9005,3.8987,3.899,3.897,3.8934,3.8938,3.8915,3.8899,3.8895,3.8855,3.8848,3.8846,3.8828,3.8818,3.882,3.8796,3.8797,3.8832,3.8839,3.8844,3.8848,3.8778,0,0,0,0,0,3.9058,3.9051,3.9015,3.902,3.9012,3.8977,3.8969,3.8947,3.8924,3.8915,3.889,3.8868,3.8854,3.8845,3.883,3.8835,3.8825,3.8839,3.8845,3.885,3.8851,3.8851,3.8857,3.8797,3.8797,3.8797,0,0,3.9081,3.9058,3.9056,3.903,3.9012,3.9004,3.897,3.8963,3.8957,3.8914,3.8907,3.8887,3.886,3.8859,3.8858,3.8844,3.8866,3.8853,3.8857,3.8855,3.8854,3.886,3.8865,3.8799,3.8799,3.8798,0,0,3.912,3.9102,3.9105,3.9088,3.9061,3.9038,3.9039,3.9005,3.8991,3.8984,3.8951,3.8942,3.892,3.8901,3.8889,3.8921,3.8896,3.8917,3.8946,3.8946,3.8951,3.8955,3.8965,3.897,3.8919,3.8919,3.8919,0,3.9152,3.9141,3.9108,3.9104,3.9093,3.9055,3.9057,3.9041,3.9011,3.9004,3.899,3.8961,3.8939,3.8933,3.8941,3.8933,3.8931,3.8921,3.8953,3.8957,3.896,3.8969,3.8974,3.8922,3.8922,3.8921,3.8921,0,3.9181,3.9173,3.9178,3.9152,3.9141,3.914,3.9107,3.91,3.9078,3.9056,3.9049,3.9022,3.9001,3.8998,3.8977,3.8989,3.8981,3.8961,3.8935,3.8969,3.8977,3.8981,3.8926,3.8925,3.8924,3.8923,0,0,3.9248,3.9205,3.9207,3.9194,3.9162,3.9155,3.9152,3.9133,3.9127,3.9108,3.9103,3.9085,3.9066,3.9052,3.9028,3.9028,3.9054,3.9007,3.9006,3.9016,3.9065,3.908,3.9085,3.9038,3.9038,3.9039,3.9067,0,3.9281,3.9274,3.9245,3.9246,3.9238,3.9202,3.9199,3.9178,3.9158,3.9147,3.9123,3.9111,3.9087,3.9078,3.9077,3.9051,3.9063,3.9049,3.9031,3.9031,3.9039,3.9089,3.9105,3.9133,3.907,3.907,3.9071,0,3.9318,3.9302,3.9303,3.9271,3.9267,3.9265,3.9244,3.9235,3.9211,3.9195,3.9181,3.9154,3.9147,3.9124,3.9113,3.9104,3.9095,3.9081,3.9081,3.9078,3.9052,3.9086,3.9141,3.9145,3.9076,3.9075,3.9075,0,3.9366,3.9345,3.9343,3.9333,3.9296,3.9295,3.928,3.9255,3.9245,3.9227,3.922,3.9201,3.919,3.9175,3.9143,3.913,3.9136,3.911,3.9121,3.9122,3.9123,3.9124,3.9177,3.9119,3.9119,3.9119,3.9119,0,3.9405,3.9407,3.9364,3.9362,3.9363,3.9329,3.933,3.931,3.9288,3.9281,3.9249,3.9242,3.9202,3.919,3.9166,3.916,3.9155,3.9141,3.9135,3.9144,3.9146,3.9137,3.9134,3.912,3.912,3.912,3.912,0,3.9459,3.9431,3.9425,3.9392,3.9383,3.9385,3.9355,3.9351,3.9329,3.932,3.9316,3.928,3.9265,3.9233,3.9209,3.9192,3.9192,3.918,3.92,3.9196,3.9209,3.9208,3.9258,3.9262,3.9203,3.9204,3.9204,0,3.9485,3.9486,3.9452,3.9446,3.9432,3.9422,3.9412,3.9379,3.937,3.9342,3.9342,3.9324,3.9309,3.9286,3.9257,3.9238,3.9225,3.9244,3.9222,3.9231,3.9224,3.9224,3.9224,3.9249,3.9249,3.925,3.9251,0,3.9535,3.9521,3.9508,3.9491,3.9481,3.9465,3.9448,3.9444,3.9406,3.9397,3.9382,3.937,3.9346,3.9329,3.9306,3.9288,3.9262,3.9258,3.9259,3.9268,3.928,3.9273,3.9213,3.9257,3.9256,3.9256,3.9255,3.9255,3.9575,3.9573,3.955,3.9537,3.9521,3.9505,3.95,3.9478,3.9465,3.9444,3.9425,3.9411,3.9386,3.9352,3.9336,3.9324,3.9312,3.9314,3.9314,3.9315,3.9319,3.9283,3.932,3.932,3.9319,3.9319,3.9319,0,3.9621,3.9605,3.9594,3.9571,3.9561,3.954,3.9519,3.9511,3.9501,3.948,3.9466,3.9448,3.9431,3.9401,3.9381,3.9377,3.9365,3.9373,3.9373,3.9369,3.9332,3.9332,3.9383,3.9383,3.9383,3.9383,3.9383,3.9383,3.9645,3.9641,3.9624,3.9612,3.9595,3.9583,3.9573,3.9558,3.9541,3.9524,3.951,3.9491,3.9466,3.9444,3.9427,3.9419,3.9412,3.9424,3.9412,3.9377,3.9371,3.9366,3.9366,3.9423,3.9423,3.9449,3.945,3.945]}]]